Time,TemperatureF,DewpointF,PressureIn,WindDirection,WindDirectionDegrees,WindSpeedMPH,WindSpeedGustMPH,Humidity,HourlyPrecipIn,Conditions,Clouds,dailyrainin,SolarRadiationWatts/m^2,SoftwareType,DateUTC
2013-10-15 00:00:00,59.5,37.0,30.02,NNE,29,0.0,1.0,43,0.00,,,0.00,0,weatherlink.com 1.10,2013-10-15 07:00:00,
2013-10-15 00:15:00,59.0,38.0,30.02,NNE,29,0.0,0.0,45,0.00,,,0.00,0,weatherlink.com 1.10,2013-10-15 07:15:00,
2013-10-15 00:30:00,58.5,37.0,30.02,NNE,29,0.0,0.0,45,0.00,,,0.00,0,weatherlink.com 1.10,2013-10-15 07:30:00,
2013-10-15 00:45:00,58.0,37.0,30.02,NNE,29,0.0,0.0,46,0.00,,,0.00,0,weatherlink.com 1.10,2013-10-15 07:45:00,
2013-10-15 01:00:00,57.6,37.0,30.01,NNE,29,0.0,0.0,46,0.00,,,0.00,0,weatherlink.com 1.10,2013-10-15 08:00:00,
2013-10-15 01:15:00,57.4,37.0,30.02,NNE,29,0.0,0.0,46,0.00,,,0.00,0,weatherlink.com 1.10,2013-10-15 08:15:00,
2013-10-15 01:30:00,57.5,37.0,30.02,NNE,29,0.0,0.0,47,0.00,,,0.00,0,weatherlink.com 1.10,2013-10-15 08:30:00,
2013-10-15 01:45:00,57.3,37.0,30.02,NNE,29,0.0,1.0,47,0.00,,,0.00,0,weatherlink.com 1.10,2013-10-15 08:45:00,
2013-10-15 02:00:00,57.2,37.0,30.02,NNE,29,0.0,0.0,47,0.00,,,0.00,0,weatherlink.com 1.10,2013-10-15 09:00:00,
2013-10-15 02:15:00,56.6,37.0,30.02,NNE,29,0.0,1.0,49,0.00,,,0.00,0,weatherlink.com 1.10,2013-10-15 09:15:00,
2013-10-15 02:30:00,56.5,38.0,30.02,NNE,29,0.0,0.0,50,0.00,,,0.00,0,weatherlink.com 1.10,2013-10-15 09:30:00,
2013-10-15 02:45:00,56.7,38.0,30.02,NNE,29,0.0,1.0,49,0.00,,,0.00,0,weatherlink.com 1.10,2013-10-15 09:45:00,
2013-10-15 03:00:00,56.5,38.0,30.01,NNE,29,0.0,0.0,50,0.00,,,0.00,0,weatherlink.com 1.10,2013-10-15 10:00:00,
2013-10-15 03:15:00,56.0,37.0,30.01,NNE,29,0.0,1.0,50,0.00,,,0.00,0,weatherlink.com 1.10,2013-10-15 10:15:00,
2013-10-15 03:30:00,55.8,37.0,30.01,NNE,29,0.0,1.0,50,0.00,,,0.00,0,weatherlink.com 1.10,2013-10-15 10:30:00,
2013-10-15 03:45:00,55.5,37.0,30.01,NNE,29,0.0,1.0,51,0.00,,,0.00,0,weatherlink.com 1.10,2013-10-15 10:45:00,
2013-10-15 04:00:00,54.9,37.0,30.00,NNE,29,0.0,1.0,52,0.00,,,0.00,0,weatherlink.com 1.10,2013-10-15 11:00:00,
2013-10-15 04:15:00,54.4,37.0,30.00,NNE,29,0.0,1.0,53,0.00,,,0.00,0,weatherlink.com 1.10,2013-10-15 11:15:00,
2013-10-15 04:30:00,54.4,38.0,30.00,NNE,29,0.0,1.0,55,0.00,,,0.00,0,weatherlink.com 1.10,2013-10-15 11:30:00,
2013-10-15 04:45:00,54.1,38.0,30.00,NNE,29,0.0,0.0,55,0.00,,,0.00,0,weatherlink.com 1.10,2013-10-15 11:45:00,
2013-10-15 05:00:00,54.4,38.0,30.00,NNE,29,0.0,0.0,54,0.00,,,0.00,0,weatherlink.com 1.10,2013-10-15 12:00:00,
2013-10-15 05:15:00,55.4,40.0,30.01,NNE,29,0.0,1.0,57,0.00,,,0.00,0,weatherlink.com 1.10,2013-10-15 12:15:00,
2013-10-15 05:30:00,55.7,42.0,30.01,NNE,29,0.0,1.0,60,0.00,,,0.00,0,weatherlink.com 1.10,2013-10-15 12:30:00,
2013-10-15 05:45:00,55.6,41.0,30.01,NNE,29,0.0,1.0,59,0.00,,,0.00,0,weatherlink.com 1.10,2013-10-15 12:45:00,
2013-10-15 06:00:00,55.4,41.0,30.01,NNE,29,0.0,1.0,58,0.00,,,0.00,0,weatherlink.com 1.10,2013-10-15 13:00:00,
2013-10-15 06:15:00,54.4,43.0,30.01,NNE,29,0.0,1.0,65,0.00,,,0.00,0,weatherlink.com 1.10,2013-10-15 13:15:00,
2013-10-15 06:30:00,54.1,39.0,30.02,NNE,29,0.0,1.0,57,0.00,,,0.00,0,weatherlink.com 1.10,2013-10-15 13:30:00,
2013-10-15 06:45:00,53.3,38.0,30.02,NNE,29,0.0,1.0,56,0.00,,,0.00,0,weatherlink.com 1.10,2013-10-15 13:45:00,
2013-10-15 07:00:00,52.9,39.0,30.02,NNE,29,0.0,1.0,60,0.00,,,0.00,0,weatherlink.com 1.10,2013-10-15 14:00:00,
2013-10-15 07:15:00,52.2,39.0,30.02,NNE,29,0.0,0.0,62,0.00,,,0.00,0,weatherlink.com 1.10,2013-10-15 14:15:00,
2013-10-15 07:31:00,52.4,39.0,30.02,NNE,29,0.0,1.0,61,0.00,,,0.00,11,weatherlink.com 1.10,2013-10-15 14:31:00,
2013-10-15 07:46:00,53.8,36.0,30.02,NNE,29,0.0,1.0,52,0.00,,,0.00,16,weatherlink.com 1.10,2013-10-15 14:46:00,
2013-10-15 08:01:00,55.9,36.0,30.02,East,101,0.0,4.0,47,0.00,,,0.00,21,weatherlink.com 1.10,2013-10-15 15:01:00,
2013-10-15 08:16:00,58.0,36.0,30.02,East,98,0.0,2.0,44,0.00,,,0.00,134,weatherlink.com 1.10,2013-10-15 15:16:00,
2013-10-15 08:31:00,61.9,36.0,30.02,SSE,153,1.0,3.0,39,0.00,,,0.00,199,weatherlink.com 1.10,2013-10-15 15:31:00,
2013-10-15 08:46:00,64.7,36.0,30.03,ESE,117,0.0,4.0,35,0.00,,,0.00,250,weatherlink.com 1.10,2013-10-15 15:46:00,
2013-10-15 09:01:00,66.6,38.0,30.03,ENE,63,1.0,2.0,35,0.00,,,0.00,301,weatherlink.com 1.10,2013-10-15 16:01:00,
2013-10-15 09:16:00,69.0,39.0,30.03,East,84,0.0,2.0,34,0.00,,,0.00,350,weatherlink.com 1.10,2013-10-15 16:16:00,
2013-10-15 09:31:00,71.3,38.0,30.03,NE,44,1.0,2.0,30,0.00,,,0.00,396,weatherlink.com 1.10,2013-10-15 16:31:00,
2013-10-15 09:46:00,71.6,39.0,30.03,NE,49,1.0,2.0,30,0.00,,,0.00,441,weatherlink.com 1.10,2013-10-15 16:46:00,
2013-10-15 10:01:00,73.1,40.0,30.03,ENE,78,0.0,2.0,30,0.00,,,0.00,483,weatherlink.com 1.10,2013-10-15 17:01:00,
2013-10-15 10:16:00,74.4,38.0,30.03,East,81,0.0,5.0,27,0.00,,,0.00,522,weatherlink.com 1.10,2013-10-15 17:16:00,
2013-10-15 10:31:00,74.5,38.0,30.03,ENE,66,1.0,5.0,27,0.00,,,0.00,561,weatherlink.com 1.10,2013-10-15 17:31:00,
2013-10-15 10:46:00,74.8,39.0,30.03,NNE,24,1.0,4.0,27,0.00,,,0.00,594,weatherlink.com 1.10,2013-10-15 17:46:00,
2013-10-15 11:01:00,75.8,36.0,30.03,SE,138,2.0,4.0,24,0.00,,,0.00,624,weatherlink.com 1.10,2013-10-15 18:01:00,
2013-10-15 11:16:00,75.7,39.0,30.02,North,5,2.0,4.0,27,0.00,,,0.00,652,weatherlink.com 1.10,2013-10-15 18:16:00,
2013-10-15 11:32:00,75.8,38.0,30.02,WNW,298,0.0,6.0,25,0.00,,,0.00,675,weatherlink.com 1.10,2013-10-15 18:32:00,
2013-10-15 11:47:00,76.6,36.0,30.02,NNE,14,2.0,5.0,23,0.00,,,0.00,696,weatherlink.com 1.10,2013-10-15 18:47:00,
2013-10-15 12:02:00,77.3,34.0,30.02,SSE,156,2.0,6.0,21,0.00,,,0.00,714,weatherlink.com 1.10,2013-10-15 19:02:00,
2013-10-15 12:17:00,78.6,39.0,30.01,NNW,348,0.0,4.0,24,0.00,,,0.00,724,weatherlink.com 1.10,2013-10-15 19:17:00,
2013-10-15 12:32:00,79.8,36.0,30.00,SSE,153,0.0,4.0,21,0.00,,,0.00,735,weatherlink.com 1.10,2013-10-15 19:32:00,
2013-10-15 12:47:00,80.3,37.0,30.00,North,351,2.0,6.0,21,0.00,,,0.00,742,weatherlink.com 1.10,2013-10-15 19:47:00,
2013-10-15 13:02:00,79.8,36.0,30.00,ESE,120,1.0,6.0,21,0.00,,,0.00,738,weatherlink.com 1.10,2013-10-15 20:02:00,
2013-10-15 13:17:00,80.0,35.0,29.99,North,355,2.0,6.0,20,0.00,,,0.00,738,weatherlink.com 1.10,2013-10-15 20:17:00,
2013-10-15 13:32:00,81.2,35.0,29.98,ESE,120,0.0,4.0,19,0.00,,,0.00,731,weatherlink.com 1.10,2013-10-15 20:32:00,
2013-10-15 13:47:00,82.1,35.0,29.97,SE,135,1.0,4.0,18,0.00,,,0.00,719,weatherlink.com 1.10,2013-10-15 20:47:00,
2013-10-15 14:02:00,81.9,36.0,29.97,SSE,155,4.0,4.0,19,0.00,,,0.00,705,weatherlink.com 1.10,2013-10-15 21:02:00,
2013-10-15 14:17:00,82.4,36.0,29.97,North,355,1.0,5.0,19,0.00,,,0.00,686,weatherlink.com 1.10,2013-10-15 21:17:00,
2013-10-15 14:32:00,83.2,34.0,29.96,NE,45,2.0,4.0,17,0.00,,,0.00,663,weatherlink.com 1.10,2013-10-15 21:32:00,
2013-10-15 14:47:00,83.9,37.0,29.96,South,183,1.0,4.0,19,0.00,,,0.00,638,weatherlink.com 1.10,2013-10-15 21:47:00,
2013-10-15 15:02:00,83.0,34.0,29.95,NNE,28,1.0,8.0,17,0.00,,,0.00,606,weatherlink.com 1.10,2013-10-15 22:02:00,
2013-10-15 15:17:00,83.1,32.0,29.95,SE,130,2.0,6.0,16,0.00,,,0.00,577,weatherlink.com 1.10,2013-10-15 22:17:00,
2013-10-15 15:32:00,83.8,33.0,29.95,NE,36,2.0,3.0,16,0.00,,,0.00,541,weatherlink.com 1.10,2013-10-15 22:32:00,
2013-10-15 15:47:00,83.1,32.0,29.95,NE,49,0.0,6.0,16,0.00,,,0.00,501,weatherlink.com 1.10,2013-10-15 22:47:00,
2013-10-15 16:02:00,84.1,32.0,29.95,North,11,1.0,4.0,15,0.00,,,0.00,461,weatherlink.com 1.10,2013-10-15 23:02:00,
2013-10-15 16:17:00,83.5,34.0,29.95,NNE,14,0.0,5.0,17,0.00,,,0.00,417,weatherlink.com 1.10,2013-10-15 23:17:00,
2013-10-15 16:32:00,84.2,33.0,29.95,SE,141,1.0,3.0,16,0.00,,,0.00,385,weatherlink.com 1.10,2013-10-15 23:32:00,
2013-10-15 16:47:00,84.0,33.0,29.94,SE,128,1.0,5.0,16,0.00,,,0.00,325,weatherlink.com 1.10,2013-10-15 23:47:00,
2013-10-15 17:02:00,83.2,33.0,29.94,SSE,155,0.0,5.0,16,0.00,,,0.00,272,weatherlink.com 1.10,2013-10-16 00:02:00,
2013-10-15 17:17:00,82.6,34.0,29.94,ENE,57,1.0,4.0,17,0.00,,,0.00,211,weatherlink.com 1.10,2013-10-16 00:17:00,
2013-10-15 17:32:00,79.3,44.0,29.94,South,173,1.0,3.0,29,0.00,,,0.00,146,weatherlink.com 1.10,2013-10-16 00:32:00,
2013-10-15 17:47:00,74.0,44.0,29.94,SSE,156,2.0,3.0,34,0.00,,,0.00,63,weatherlink.com 1.10,2013-10-16 00:47:00,
2013-10-15 18:02:00,71.9,43.0,29.94,SSE,147,1.0,3.0,35,0.00,,,0.00,28,weatherlink.com 1.10,2013-10-16 01:02:00,
2013-10-15 18:17:00,71.0,45.0,29.94,SE,146,1.0,3.0,40,0.00,,,0.00,12,weatherlink.com 1.10,2013-10-16 01:17:00,
2013-10-15 18:32:00,69.6,46.0,29.95,SE,146,1.0,2.0,43,0.00,,,0.00,0,weatherlink.com 1.10,2013-10-16 01:32:00,
2013-10-15 18:47:00,68.4,46.0,29.95,SE,146,0.0,1.0,44,0.00,,,0.00,0,weatherlink.com 1.10,2013-10-16 01:47:00,
2013-10-15 19:02:00,68.1,40.0,29.95,NNE,30,0.0,3.0,36,0.00,,,0.00,0,weatherlink.com 1.10,2013-10-16 02:02:00,
2013-10-15 19:17:00,68.4,37.0,29.95,North,355,1.0,5.0,32,0.00,,,0.00,0,weatherlink.com 1.10,2013-10-16 02:17:00,
2013-10-15 19:32:00,67.9,36.0,29.95,ENE,66,0.0,3.0,31,0.00,,,0.00,0,weatherlink.com 1.10,2013-10-16 02:32:00,
2013-10-15 19:48:00,67.0,36.0,29.95,ENE,70,0.0,1.0,32,0.00,,,0.00,0,weatherlink.com 1.10,2013-10-16 02:48:00,
2013-10-15 20:03:00,65.9,35.0,29.96,NNE,14,0.0,1.0,32,0.00,,,0.00,0,weatherlink.com 1.10,2013-10-16 03:03:00,
2013-10-15 20:18:00,65.0,35.0,29.96,NNE,16,0.0,1.0,33,0.00,,,0.00,0,weatherlink.com 1.10,2013-10-16 03:18:00,
2013-10-15 20:33:00,64.4,34.0,29.96,ESE,117,0.0,2.0,32,0.00,,,0.00,0,weatherlink.com 1.10,2013-10-16 03:33:00,
2013-10-15 20:48:00,64.1,34.0,29.96,NE,54,0.0,1.0,33,0.00,,,0.00,0,weatherlink.com 1.10,2013-10-16 03:48:00,
2013-10-15 21:03:00,64.0,33.0,29.96,NE,41,0.0,1.0,32,0.00,,,0.00,0,weatherlink.com 1.10,2013-10-16 04:03:00,
2013-10-15 21:18:00,63.8,34.0,29.97,ENE,57,0.0,1.0,33,0.00,,,0.00,0,weatherlink.com 1.10,2013-10-16 04:18:00,
2013-10-15 21:33:00,63.4,34.0,29.97,ENE,57,0.0,0.0,33,0.00,,,0.00,0,weatherlink.com 1.10,2013-10-16 04:33:00,
2013-10-15 21:48:00,62.9,33.0,29.97,ENE,57,0.0,0.0,33,0.00,,,0.00,0,weatherlink.com 1.10,2013-10-16 04:48:00,
2013-10-15 22:03:00,62.4,34.0,29.97,ENE,57,0.0,0.0,35,0.00,,,0.00,0,weatherlink.com 1.10,2013-10-16 05:03:00,
2013-10-15 22:18:00,61.7,34.0,29.98,ENE,57,0.0,0.0,36,0.00,,,0.00,0,weatherlink.com 1.10,2013-10-16 05:18:00,
2013-10-15 22:33:00,61.1,34.0,29.98,ENE,57,0.0,0.0,37,0.00,,,0.00,0,weatherlink.com 1.10,2013-10-16 05:33:00,
2013-10-15 22:48:00,60.6,34.0,29.98,ENE,57,0.0,0.0,37,0.00,,,0.00,0,weatherlink.com 1.10,2013-10-16 05:48:00,
2013-10-15 23:03:00,60.0,34.0,29.98,ENE,57,0.0,0.0,38,0.00,,,0.00,0,weatherlink.com 1.10,2013-10-16 06:03:00,
2013-10-15 23:18:00,59.6,34.0,29.98,ENE,57,0.0,0.0,38,0.00,,,0.00,0,weatherlink.com 1.10,2013-10-16 06:18:00,
2013-10-15 23:33:00,59.5,34.0,29.98,ENE,57,0.0,0.0,39,0.00,,,0.00,0,weatherlink.com 1.10,2013-10-16 06:33:00,
2013-10-15 23:48:00,59.4,34.0,29.98,ENE,57,0.0,0.0,39,0.00,,,0.00,0,weatherlink.com 1.10,2013-10-16 06:48:00,